STARLINK-33853, 63684

Orbit data source: Space-Track

STARLINK-33853, 63684 is a payload satellite owned by SpaceX/Seattle (US) in LEO that was launched on Mon, 28 Apr 2025 UTC via an FALCON 9 launch vehicle from the Air Force Eastern Test Range (AFETR). Payload-class satellites include a variety of spacecraft equipped with specific instruments for various scientific and technological missions. These include communications satellites like Starlink; space stations such as the ISS; scientific satellites like the Hubble; Earth observation satellites from companies like Planet Labs, Umbra, and HawkEye 360; GPS; miniature CubeSats for education and research; and military/defense satellites.

Loading next visibility...
Identifier
63684, 2025-085W
Orbit
LEO
Country
Flag of USUS
Related business
Manufacturer
SpaceX/Seattle
Mission
Operational Commercial Communications
Bus & Motor
STARLINK V2MO, Unknown motor
Mass
575 kg wet, ~530 kg dry
Launch date (UTC)
2025-04-28 (1 year ago)
Launch vehicle
FALCON 9
Launch site
Air Force Eastern Test Range (AFETR)
Object type
Payload
Rocket body
Debris
Shape & HBR
Box + 2 Pan, 17.7 m
Radar Cross Section
36.964 m², Large (>1 m²)

Expand to show TLE details & history
Last TLE update: 20 hours ago

TLE from 20 hours ago
0 STARLINK-33853
1 63684U 25085W   26171.08424246  .00010406  00000-0  38704-3 0  9990
2 63684  43.0005 172.3124 0001382 270.5018  89.5675 15.27587567 64539
Epoch: 2026-06-20T02:01Z
TLE epoch observation values (Epoch: 2026-06-20T02:01:18.548Z)
Latitude
-0.00004°
Longitude
-126.31887°
Altitude
482.795 km
Speed
7.626 km/s
True Right ascension
11h 29m 14s
True Declination
0° 00' 00"
Sunlit
Object was in daylight at epoch
Visualization orbit readout
Latitude
Unknown
Longitude
Unknown
Altitude
Unknown
Speed
Unknown
Apparent Right ascension
Unknown
Apparent Declination
Unknown
Sunlit
N/A
Visualization observer readout
Local Sidereal Time
08:33:19
Azimuth
Unknown
Elevation
Unknown
Doppler factor
Unknown
Orbital elements
Apogee altitude
485.92 km
Perigee altitude
484.023 km
Semi-major axis
6,863.109 km
Eccentricity
0.00014
Inclination
43.0005°
RAAN
172.3124°
Arg. of periapsis
270.5018°
True anomaly
89.58334°
Mean anomaly
89.5675°
Eccentric anomaly
89.57542°
Mean motion
3.81735 °/min
Orbital period
94.31 mins
BSTAR
0.00038704
Loading maneuver chart data...
Computing Atmospheric mass density...
Loading historical data...
Loading historical data...
Loading historical data...
Loading historical data...
Loading historical data...
Loading historical data...
Loading historical data...

Documentation

Showing up to 5 results
|